Time,TemperatureF,DewpointF,PressureIn,WindDirection,WindDirectionDegrees,WindSpeedMPH,WindSpeedGustMPH,Humidity,HourlyPrecipIn,Conditions,Clouds,dailyrainin,SoftwareType,DateUTC
2013-10-08 00:02:00,61.0,43.8,30.13,ENE,61,2.0,2.0,53,0.00,,CLR,0.00,VWS V14.01,2013-10-08 05:02:00,
2013-10-08 00:07:00,61.0,43.8,30.13,ENE,61,0.0,3.0,53,0.00,,CLR,0.00,VWS V14.01,2013-10-08 05:07:00,
2013-10-08 00:12:00,60.9,44.2,30.13,ENE,66,0.0,5.0,54,0.00,,CLR,0.00,VWS V14.01,2013-10-08 05:12:00,
2013-10-08 00:17:00,61.0,44.2,30.12,ENE,62,2.0,5.0,54,0.00,,CLR,0.00,VWS V14.01,2013-10-08 05:17:00,
2013-10-08 00:22:00,60.9,44.6,30.12,ENE,75,3.0,5.0,55,0.00,,CLR,0.00,VWS V14.01,2013-10-08 05:22:00,
2013-10-08 00:27:00,60.9,44.2,30.12,East,79,5.0,5.0,54,0.00,,CLR,0.00,VWS V14.01,2013-10-08 05:27:00,
2013-10-08 00:32:00,60.9,45.1,30.12,ENE,73,0.0,5.0,56,0.00,,CLR,0.00,VWS V14.01,2013-10-08 05:32:00,
2013-10-08 00:37:00,60.7,44.0,30.12,ENE,78,3.0,6.0,54,0.00,,CLR,0.00,VWS V14.01,2013-10-08 05:37:00,
2013-10-08 00:42:00,60.5,44.7,30.12,ENE,71,3.0,6.0,56,0.00,,CLR,0.00,VWS V14.01,2013-10-08 05:42:00,
2013-10-08 00:47:00,60.1,44.4,30.12,ENE,75,1.0,6.0,56,0.00,,CLR,0.00,VWS V14.01,2013-10-08 05:47:00,
2013-10-08 00:52:00,59.8,44.5,30.12,ENE,73,0.0,6.0,57,0.00,,CLR,0.00,VWS V14.01,2013-10-08 05:52:00,
2013-10-08 00:57:00,59.6,45.3,30.12,East,86,1.0,6.0,59,0.00,,CLR,0.00,VWS V14.01,2013-10-08 05:57:00,
2013-10-08 01:02:00,59.5,44.7,30.12,East,85,3.0,5.0,58,0.00,,CLR,0.00,VWS V14.01,2013-10-08 06:02:00,
2013-10-08 01:08:00,59.3,44.5,30.12,ENE,68,2.0,6.0,58,0.00,,CLR,0.00,VWS V14.01,2013-10-08 06:08:00,
2013-10-08 01:13:00,59.2,44.5,30.12,East,79,2.0,6.0,58,0.00,,CLR,0.00,VWS V14.01,2013-10-08 06:13:00,
2013-10-08 01:18:00,59.0,45.2,30.12,East,100,2.0,6.0,60,0.00,,CLR,0.00,VWS V14.01,2013-10-08 06:18:00,
2013-10-08 01:23:00,58.9,45.1,30.12,East,92,2.0,6.0,60,0.00,,CLR,0.00,VWS V14.01,2013-10-08 06:23:00,
2013-10-08 01:28:00,58.7,45.3,30.12,East,88,2.0,6.0,61,0.00,,CLR,0.00,VWS V14.01,2013-10-08 06:28:00,
2013-10-08 01:33:00,58.6,44.8,30.12,ENE,76,3.0,6.0,60,0.00,,CLR,0.00,VWS V14.01,2013-10-08 06:33:00,
2013-10-08 01:38:00,58.6,46.1,30.12,East,83,1.0,6.0,63,0.00,,CLR,0.00,VWS V14.01,2013-10-08 06:38:00,
2013-10-08 01:43:00,58.4,45.9,30.12,East,85,2.0,6.0,63,0.00,,CLR,0.00,VWS V14.01,2013-10-08 06:43:00,
2013-10-08 01:48:00,58.3,45.3,30.12,ESE,104,0.0,6.0,62,0.00,,CLR,0.00,VWS V14.01,2013-10-08 06:48:00,
2013-10-08 01:53:00,58.4,45.5,30.12,East,85,0.0,6.0,62,0.00,,CLR,0.00,VWS V14.01,2013-10-08 06:53:00,
2013-10-08 01:58:00,58.6,45.6,30.12,East,97,1.0,6.0,62,0.00,,CLR,0.00,VWS V14.01,2013-10-08 06:58:00,
2013-10-08 02:03:00,58.6,46.1,30.12,East,99,0.0,1.0,63,0.00,,CLR,0.00,VWS V14.01,2013-10-08 07:03:00,
2013-10-08 02:08:00,58.6,46.5,30.12,East,97,0.0,1.0,64,0.00,,CLR,0.00,VWS V14.01,2013-10-08 07:08:00,
2013-10-08 02:13:00,58.6,46.5,30.12,ESE,112,0.0,1.0,64,0.00,,CLR,0.00,VWS V14.01,2013-10-08 07:13:00,
2013-10-08 02:18:00,58.4,46.7,30.13,ESE,112,0.0,1.0,65,0.00,,CLR,0.00,VWS V14.01,2013-10-08 07:18:00,
2013-10-08 02:23:00,58.1,46.4,30.13,ESE,104,0.0,1.0,65,0.00,,CLR,0.00,VWS V14.01,2013-10-08 07:23:00,
2013-10-08 02:28:00,58.0,46.7,30.13,ESE,103,0.0,1.0,66,0.00,,CLR,0.00,VWS V14.01,2013-10-08 07:28:00,
2013-10-08 02:33:00,57.8,46.5,30.13,ESE,103,0.0,1.0,66,0.00,,CLR,0.00,VWS V14.01,2013-10-08 07:33:00,
2013-10-08 02:38:00,57.6,46.7,30.13,ESE,103,0.0,1.0,67,0.00,,CLR,0.00,VWS V14.01,2013-10-08 07:38:00,
2013-10-08 02:43:00,57.5,46.6,30.13,ESE,103,0.0,1.0,67,0.00,,CLR,0.00,VWS V14.01,2013-10-08 07:43:00,
2013-10-08 02:48:00,57.5,46.6,30.13,ESE,103,0.0,1.0,67,0.00,,CLR,0.00,VWS V14.01,2013-10-08 07:48:00,
2013-10-08 02:53:00,57.5,46.2,30.13,ESE,103,0.0,1.0,66,0.00,,CLR,0.00,VWS V14.01,2013-10-08 07:53:00,
2013-10-08 02:58:00,57.5,46.2,30.13,ESE,104,0.0,1.0,66,0.00,,CLR,0.00,VWS V14.01,2013-10-08 07:58:00,
2013-10-08 03:00:00,57.5,46.2,30.12,ESE,104,0.0,1.0,66,0.00,,OVC041CB,0.00,VWS V14.01,2013-10-08 08:00:00,
2013-10-08 03:03:00,57.3,46.0,30.12,ESE,104,0.0,0.0,66,0.00,,CLR,0.00,VWS V14.01,2013-10-08 08:03:00,
2013-10-08 03:08:00,57.2,46.4,30.12,ESE,113,0.0,0.0,67,0.00,,CLR,0.00,VWS V14.01,2013-10-08 08:08:00,
2013-10-08 03:13:00,57.0,46.2,30.12,East,93,0.0,0.0,67,0.00,,CLR,0.00,VWS V14.01,2013-10-08 08:13:00,
2013-10-08 03:19:00,57.0,46.2,30.12,East,83,0.0,0.0,67,0.00,,CLR,0.00,VWS V14.01,2013-10-08 08:19:00,
2013-10-08 03:24:00,57.2,46.4,30.12,ENE,72,0.0,0.0,67,0.00,,CLR,0.00,VWS V14.01,2013-10-08 08:24:00,
2013-10-08 03:29:00,57.2,46.8,30.12,East,96,0.0,0.0,68,0.00,,CLR,0.00,VWS V14.01,2013-10-08 08:29:00,
2013-10-08 03:34:00,57.2,47.1,30.12,East,89,0.0,5.0,69,0.00,,CLR,0.00,VWS V14.01,2013-10-08 08:34:00,
2013-10-08 03:39:00,57.0,46.9,30.12,East,85,2.0,5.0,69,0.00,,CLR,0.00,VWS V14.01,2013-10-08 08:39:00,
2013-10-08 03:44:00,57.0,47.3,30.12,East,83,2.0,7.0,70,0.00,,CLR,0.00,VWS V14.01,2013-10-08 08:44:00,
2013-10-08 03:49:00,57.0,46.9,30.12,East,83,1.0,7.0,69,0.00,,CLR,0.00,VWS V14.01,2013-10-08 08:49:00,
2013-10-08 03:54:00,56.9,47.2,30.12,East,88,0.0,7.0,70,0.00,,CLR,0.00,VWS V14.01,2013-10-08 08:54:00,
2013-10-08 03:59:00,56.6,47.3,30.12,East,92,2.0,7.0,71,0.00,,CLR,0.00,VWS V14.01,2013-10-08 08:59:00,
2013-10-08 04:04:00,56.6,47.3,30.12,East,82,0.0,3.0,71,0.00,,CLR,0.00,VWS V14.01,2013-10-08 09:04:00,
2013-10-08 04:09:00,56.3,47.4,30.12,ENE,68,0.0,5.0,72,0.00,,CLR,0.00,VWS V14.01,2013-10-08 09:09:00,
2013-10-08 04:14:00,56.3,47.4,30.12,East,86,0.0,5.0,72,0.00,,CLR,0.00,VWS V14.01,2013-10-08 09:14:00,
2013-10-08 04:19:00,56.2,47.3,30.12,ESE,120,0.0,5.0,72,0.00,,CLR,0.00,VWS V14.01,2013-10-08 09:19:00,
2013-10-08 04:24:00,56.0,47.5,30.12,SE,124,2.0,5.0,73,0.00,,CLR,0.00,VWS V14.01,2013-10-08 09:24:00,
2013-10-08 04:29:00,56.0,47.5,30.12,ESE,109,0.0,5.0,73,0.00,,CLR,0.00,VWS V14.01,2013-10-08 09:29:00,
2013-10-08 04:34:00,55.9,47.4,30.12,East,79,1.0,5.0,73,0.00,,CLR,0.00,VWS V14.01,2013-10-08 09:34:00,
2013-10-08 04:39:00,55.7,47.5,30.12,East,95,0.0,5.0,74,0.00,,CLR,0.00,VWS V14.01,2013-10-08 09:39:00,
2013-10-08 04:44:00,55.6,47.5,30.12,East,88,0.0,5.0,74,0.00,,CLR,0.00,VWS V14.01,2013-10-08 09:44:00,
2013-10-08 04:49:00,55.4,47.3,30.12,East,100,2.0,5.0,74,0.00,,CLR,0.00,VWS V14.01,2013-10-08 09:49:00,
2013-10-08 04:54:00,55.4,47.3,30.12,ESE,113,2.0,5.0,74,0.00,,CLR,0.00,VWS V14.01,2013-10-08 09:54:00,
2013-10-08 04:59:00,55.4,46.9,30.12,ESE,120,1.0,5.0,73,0.00,,CLR,0.00,VWS V14.01,2013-10-08 09:59:00,
2013-10-08 05:00:00,55.4,46.9,30.12,ESE,123,1.0,5.0,73,0.00,,OVC041CB,0.00,VWS V14.01,2013-10-08 10:00:00,
2013-10-08 05:04:00,55.6,46.7,30.12,SE,128,0.0,5.0,72,0.00,,CLR,0.00,VWS V14.01,2013-10-08 10:04:00,
2013-10-08 05:09:00,55.7,46.8,30.12,ESE,117,2.0,5.0,72,0.00,,CLR,0.00,VWS V14.01,2013-10-08 10:09:00,
2013-10-08 05:14:00,56.0,46.7,30.12,ESE,104,2.0,7.0,71,0.00,,CLR,0.00,VWS V14.01,2013-10-08 10:14:00,
2013-10-08 05:19:00,56.2,46.6,30.12,ESE,107,2.0,7.0,70,0.00,,CLR,0.00,VWS V14.01,2013-10-08 10:19:00,
2013-10-08 05:24:00,56.3,46.7,30.12,East,95,3.0,7.0,70,0.00,,CLR,0.00,VWS V14.01,2013-10-08 10:24:00,
2013-10-08 05:29:00,56.5,46.5,30.12,ESE,120,3.0,10.0,69,0.00,,CLR,0.00,VWS V14.01,2013-10-08 10:29:00,
2013-10-08 05:35:00,56.5,46.5,30.12,East,100,2.0,10.0,69,0.00,,CLR,0.00,VWS V14.01,2013-10-08 10:35:00,
2013-10-08 05:40:00,56.5,46.5,30.12,East,95,1.0,10.0,69,0.00,,CLR,0.00,VWS V14.01,2013-10-08 10:40:00,
2013-10-08 05:45:00,56.7,46.3,30.12,East,99,3.0,10.0,68,0.00,,CLR,0.00,VWS V14.01,2013-10-08 10:45:00,
2013-10-08 05:50:00,57.0,45.8,30.12,East,95,3.0,10.0,66,0.00,,CLR,0.00,VWS V14.01,2013-10-08 10:50:00,
2013-10-08 05:55:00,57.2,46.0,30.12,East,90,5.0,10.0,66,0.00,,CLR,0.00,VWS V14.01,2013-10-08 10:55:00,
2013-10-08 06:00:00,57.2,46.4,30.12,East,100,6.0,10.0,67,0.00,,CLR,0.00,VWS V14.01,2013-10-08 11:00:00,
2013-10-08 06:05:00,56.7,46.7,30.12,ENE,69,3.0,10.0,69,0.00,,CLR,0.00,VWS V14.01,2013-10-08 11:05:00,
2013-10-08 06:10:00,56.3,46.7,30.12,ESE,109,5.0,10.0,70,0.00,,CLR,0.00,VWS V14.01,2013-10-08 11:10:00,
2013-10-08 06:15:00,56.0,46.7,30.13,East,88,2.0,10.0,71,0.00,,CLR,0.00,VWS V14.01,2013-10-08 11:15:00,
2013-10-08 06:20:00,55.7,46.5,30.13,East,80,2.0,10.0,71,0.00,,CLR,0.00,VWS V14.01,2013-10-08 11:20:00,
2013-10-08 06:25:00,55.6,46.7,30.13,ESE,116,2.0,10.0,72,0.00,,CLR,0.00,VWS V14.01,2013-10-08 11:25:00,
2013-10-08 06:30:00,55.4,46.5,30.13,ESE,103,1.0,10.0,72,0.00,,CLR,0.00,VWS V14.01,2013-10-08 11:30:00,
2013-10-08 06:35:00,55.3,46.1,30.13,SSE,152,3.0,10.0,71,0.00,,CLR,0.00,VWS V14.01,2013-10-08 11:35:00,
2013-10-08 06:40:00,55.1,46.2,30.13,East,90,3.0,10.0,72,0.00,,CLR,0.00,VWS V14.01,2013-10-08 11:40:00,
2013-10-08 06:45:00,55.1,46.2,30.13,ESE,106,0.0,10.0,72,0.00,,CLR,0.00,VWS V14.01,2013-10-08 11:45:00,
2013-10-08 06:50:00,55.0,46.5,30.13,East,85,2.0,10.0,73,0.00,,CLR,0.00,VWS V14.01,2013-10-08 11:50:00,
2013-10-08 06:55:00,55.0,46.2,30.13,ENE,78,1.0,10.0,72,0.00,,CLR,0.00,VWS V14.01,2013-10-08 11:55:00,
2013-10-08 07:00:00,54.8,46.0,30.13,ESE,106,0.0,3.0,72,0.00,,CLR,0.00,VWS V14.01,2013-10-08 12:00:00,
2013-10-08 07:05:00,54.7,45.9,30.13,SE,124,3.0,5.0,72,0.00,,CLR,0.00,VWS V14.01,2013-10-08 12:05:00,
2013-10-08 07:10:00,54.5,46.0,30.13,East,85,0.0,6.0,73,0.00,,CLR,0.00,VWS V14.01,2013-10-08 12:10:00,
2013-10-08 07:15:00,54.4,45.9,30.14,ESE,119,0.0,6.0,73,0.00,,CLR,0.00,VWS V14.01,2013-10-08 12:15:00,
2013-10-08 07:20:00,53.9,45.8,30.14,ESE,119,0.0,6.0,74,0.00,,CLR,0.00,VWS V14.01,2013-10-08 12:20:00,
2013-10-08 07:25:00,53.5,45.8,30.14,SSE,148,0.0,6.0,75,0.00,,CLR,0.00,VWS V14.01,2013-10-08 12:25:00,
2013-10-08 07:30:00,53.2,45.8,30.14,South,172,0.0,6.0,76,0.00,,CLR,0.00,VWS V14.01,2013-10-08 12:30:00,
2013-10-08 07:35:00,52.8,45.8,30.14,SE,133,0.0,6.0,77,0.00,,CLR,0.00,VWS V14.01,2013-10-08 12:35:00,
2013-10-08 07:40:00,52.6,45.6,30.14,ESE,102,0.0,6.0,77,0.00,,CLR,0.00,VWS V14.01,2013-10-08 12:40:00,
2013-10-08 07:45:00,52.5,45.8,30.14,ESE,110,1.0,6.0,78,0.00,,CLR,0.00,VWS V14.01,2013-10-08 12:45:00,
2013-10-08 07:50:00,52.5,46.2,30.14,ESE,123,0.0,7.0,79,0.00,,CLR,0.00,VWS V14.01,2013-10-08 12:50:00,
2013-10-08 07:56:00,53.1,46.4,30.14,South,178,2.0,7.0,78,0.00,,CLR,0.00,VWS V14.01,2013-10-08 12:56:00,
2013-10-08 08:01:00,53.6,46.9,30.14,SSE,157,1.0,1.0,78,0.00,,CLR,0.00,VWS V14.01,2013-10-08 13:01:00,
2013-10-08 08:06:00,54.1,46.7,30.14,SE,145,0.0,5.0,76,0.00,,CLR,0.00,VWS V14.01,2013-10-08 13:06:00,
2013-10-08 08:11:00,54.5,47.1,30.14,East,96,0.0,6.0,76,0.00,,CLR,0.00,VWS V14.01,2013-10-08 13:11:00,
2013-10-08 08:16:00,55.0,47.2,30.15,SE,130,0.0,6.0,75,0.00,,CLR,0.00,VWS V14.01,2013-10-08 13:16:00,
2013-10-08 08:21:00,55.4,47.6,30.15,SE,128,5.0,6.0,75,0.00,,CLR,0.00,VWS V14.01,2013-10-08 13:21:00,
2013-10-08 08:26:00,55.9,47.0,30.15,East,89,2.0,8.0,72,0.00,,CLR,0.00,VWS V14.01,2013-10-08 13:26:00,
2013-10-08 08:31:00,56.3,47.4,30.15,SSE,150,0.0,8.0,72,0.00,,CLR,0.00,VWS V14.01,2013-10-08 13:31:00,
2013-10-08 08:36:00,56.9,48.0,30.15,SE,130,0.0,8.0,72,0.00,,CLR,0.00,VWS V14.01,2013-10-08 13:36:00,
2013-10-08 08:41:00,57.3,46.8,30.15,SE,140,1.0,8.0,68,0.00,,CLR,0.00,VWS V14.01,2013-10-08 13:41:00,
2013-10-08 08:46:00,57.8,47.7,30.15,SE,136,0.0,8.0,69,0.00,,CLR,0.00,VWS V14.01,2013-10-08 13:46:00,
2013-10-08 08:51:00,58.1,47.2,30.15,East,90,1.0,8.0,67,0.00,,CLR,0.00,VWS V14.01,2013-10-08 13:51:00,
2013-10-08 08:56:00,58.4,47.1,30.15,East,99,0.0,8.0,66,0.00,,CLR,0.00,VWS V14.01,2013-10-08 13:56:00,
2013-10-08 09:01:00,58.9,47.2,30.15,ESE,107,0.0,2.0,65,0.00,,CLR,0.00,VWS V14.01,2013-10-08 14:01:00,
2013-10-08 09:06:00,59.3,47.1,30.15,ENE,61,0.0,5.0,64,0.00,,CLR,0.00,VWS V14.01,2013-10-08 14:06:00,
2013-10-08 09:11:00,59.8,47.6,30.15,SE,141,2.0,8.0,64,0.00,,CLR,0.00,VWS V14.01,2013-10-08 14:11:00,
2013-10-08 09:16:00,59.9,47.3,30.15,ESE,120,2.0,8.0,63,0.00,,CLR,0.00,VWS V14.01,2013-10-08 14:16:00,
2013-10-08 09:21:00,60.2,48.0,30.15,East,89,5.0,8.0,64,0.00,,CLR,0.00,VWS V14.01,2013-10-08 14:21:00,
2013-10-08 09:26:00,60.4,48.6,30.15,ESE,121,7.0,8.0,65,0.00,,CLR,0.00,VWS V14.01,2013-10-08 14:26:00,
2013-10-08 09:31:00,60.7,48.9,30.16,East,80,3.0,8.0,65,0.00,,CLR,0.00,VWS V14.01,2013-10-08 14:31:00,
2013-10-08 09:36:00,61.2,48.9,30.16,ENE,78,5.0,8.0,64,0.00,,CLR,0.00,VWS V14.01,2013-10-08 14:36:00,
2013-10-08 09:41:00,61.6,48.9,30.16,SE,143,0.0,8.0,63,0.00,,CLR,0.00,VWS V14.01,2013-10-08 14:41:00,
2013-10-08 09:46:00,62.0,48.8,30.16,ESE,112,2.0,8.0,62,0.00,,CLR,0.00,VWS V14.01,2013-10-08 14:46:00,
2013-10-08 09:51:00,62.1,48.9,30.16,East,80,0.0,8.0,62,0.00,,CLR,0.00,VWS V14.01,2013-10-08 14:51:00,
2013-10-08 09:56:00,62.6,49.8,30.16,SE,126,2.0,10.0,63,0.00,,CLR,0.00,VWS V14.01,2013-10-08 14:56:00,
2013-10-08 10:00:00,63.1,49.9,30.16,South,179,2.0,10.0,62,0.00,,OVC041CB,0.00,VWS V14.01,2013-10-08 15:00:00,
2013-10-08 10:01:00,63.4,49.3,30.16,ESE,106,1.0,12.0,60,0.00,,CLR,0.00,VWS V14.01,2013-10-08 15:01:00,
2013-10-08 10:06:00,64.0,49.8,30.16,East,82,2.0,12.0,60,0.00,,CLR,0.00,VWS V14.01,2013-10-08 15:06:00,
2013-10-08 10:12:00,64.5,49.9,30.16,SSE,168,0.0,12.0,59,0.00,,CLR,0.00,VWS V14.01,2013-10-08 15:12:00,
2013-10-08 10:17:00,64.7,49.1,30.16,NE,44,3.0,12.0,57,0.00,,CLR,0.00,VWS V14.01,2013-10-08 15:17:00,
2013-10-08 10:22:00,64.7,48.7,30.16,North,359,1.0,12.0,56,0.00,,CLR,0.00,VWS V14.01,2013-10-08 15:22:00,
2013-10-08 10:27:00,64.7,48.7,30.16,ENE,75,0.0,12.0,56,0.00,,CLR,0.00,VWS V14.01,2013-10-08 15:27:00,
2013-10-08 10:32:00,64.7,48.7,30.16,ENE,78,0.0,12.0,56,0.00,,CLR,0.00,VWS V14.01,2013-10-08 15:32:00,
2013-10-08 10:37:00,65.2,49.1,30.16,East,90,0.0,12.0,56,0.00,,CLR,0.00,VWS V14.01,2013-10-08 15:37:00,
2013-10-08 10:42:00,65.6,50.0,30.16,ENE,73,5.0,12.0,57,0.00,,CLR,0.00,VWS V14.01,2013-10-08 15:42:00,
2013-10-08 10:47:00,66.0,50.3,30.16,South,179,0.0,12.0,57,0.00,,CLR,0.00,VWS V14.01,2013-10-08 15:47:00,
2013-10-08 10:52:00,66.6,50.0,30.16,South,181,0.0,12.0,55,0.00,,CLR,0.00,VWS V14.01,2013-10-08 15:52:00,
2013-10-08 10:57:00,67.1,51.4,30.16,SE,136,2.0,12.0,57,0.00,,CLR,0.00,VWS V14.01,2013-10-08 15:57:00,
2013-10-08 11:02:00,66.9,49.7,30.15,South,171,1.0,3.0,54,0.00,,CLR,0.00,VWS V14.01,2013-10-08 16:02:00,
2013-10-08 11:07:00,66.9,50.2,30.15,South,169,0.0,7.0,55,0.00,,CLR,0.00,VWS V14.01,2013-10-08 16:07:00,
2013-10-08 11:12:00,66.8,48.6,30.15,East,89,2.0,8.0,52,0.00,,CLR,0.00,VWS V14.01,2013-10-08 16:12:00,
2013-10-08 11:17:00,66.8,49.6,30.15,ESE,102,3.0,12.0,54,0.00,,CLR,0.00,VWS V14.01,2013-10-08 16:17:00,
2013-10-08 11:22:00,67.6,50.4,30.15,East,92,2.0,12.0,54,0.00,,CLR,0.00,VWS V14.01,2013-10-08 16:22:00,
2013-10-08 11:27:00,67.9,49.1,30.15,SSE,158,1.0,12.0,51,0.00,,CLR,0.00,VWS V14.01,2013-10-08 16:27:00,
2013-10-08 11:32:00,68.4,50.1,30.15,SSW,209,0.0,14.0,52,0.00,,CLR,0.00,VWS V14.01,2013-10-08 16:32:00,
2013-10-08 11:37:00,68.6,49.8,30.15,East,86,3.0,14.0,51,0.00,,CLR,0.00,VWS V14.01,2013-10-08 16:37:00,
2013-10-08 11:42:00,69.1,49.2,30.15,ENE,71,3.0,14.0,49,0.00,,CLR,0.00,VWS V14.01,2013-10-08 16:42:00,
2013-10-08 11:47:00,68.9,49.5,30.14,SSE,162,5.0,14.0,50,0.00,,CLR,0.00,VWS V14.01,2013-10-08 16:47:00,
2013-10-08 11:52:00,68.9,50.6,30.14,ESE,114,1.0,14.0,52,0.00,,CLR,0.00,VWS V14.01,2013-10-08 16:52:00,
2013-10-08 11:57:00,68.8,49.4,30.14,East,90,5.0,14.0,50,0.00,,CLR,0.00,VWS V14.01,2013-10-08 16:57:00,
2013-10-08 12:02:00,69.3,49.9,30.14,NE,51,7.0,10.0,50,0.00,,CLR,0.00,VWS V14.01,2013-10-08 17:02:00,
2013-10-08 12:07:00,69.8,49.8,30.14,SSE,164,6.0,10.0,49,0.00,,CLR,0.00,VWS V14.01,2013-10-08 17:07:00,
2013-10-08 12:13:00,69.8,49.2,30.14,SE,141,6.0,10.0,48,0.00,,CLR,0.00,VWS V14.01,2013-10-08 17:13:00,
2013-10-08 12:18:00,69.4,48.9,30.13,ESE,107,5.0,10.0,48,0.00,,CLR,0.00,VWS V14.01,2013-10-08 17:18:00,
2013-10-08 12:23:00,69.9,50.4,30.13,SSW,202,0.0,10.0,50,0.00,,CLR,0.00,VWS V14.01,2013-10-08 17:23:00,
2013-10-08 12:29:00,70.1,50.1,30.13,East,100,2.0,10.0,49,0.00,,CLR,0.00,VWS V14.01,2013-10-08 17:29:00,
2013-10-08 12:34:00,69.9,48.8,30.13,ESE,104,5.0,10.0,47,0.00,,CLR,0.00,VWS V14.01,2013-10-08 17:34:00,
2013-10-08 12:39:00,70.3,50.8,30.13,East,93,2.0,10.0,50,0.00,,CLR,0.00,VWS V14.01,2013-10-08 17:39:00,
2013-10-08 12:44:00,70.8,50.2,30.13,ENE,58,5.0,10.0,48,0.00,,CLR,0.00,VWS V14.01,2013-10-08 17:44:00,
2013-10-08 12:49:00,70.4,49.8,30.12,ESE,119,5.0,10.0,48,0.00,,CLR,0.00,VWS V14.01,2013-10-08 17:49:00,
2013-10-08 12:54:00,70.6,50.5,30.12,ESE,117,2.0,10.0,49,0.00,,CLR,0.00,VWS V14.01,2013-10-08 17:54:00,
2013-10-08 12:59:00,70.8,51.3,30.12,East,85,5.0,10.0,50,0.00,,CLR,0.00,VWS V14.01,2013-10-08 17:59:00,
2013-10-08 13:04:00,70.9,50.2,30.11,South,185,2.0,11.0,48,0.00,,CLR,0.00,VWS V14.01,2013-10-08 18:04:00,
2013-10-08 13:09:00,71.8,51.1,30.11,SSW,210,2.0,11.0,48,0.00,,CLR,0.00,VWS V14.01,2013-10-08 18:09:00,
2013-10-08 13:14:00,72.0,51.3,30.11,NE,56,2.0,11.0,48,0.00,,CLR,0.00,VWS V14.01,2013-10-08 18:14:00,
2013-10-08 13:19:00,72.0,50.1,30.11,SE,137,6.0,11.0,46,0.00,,CLR,0.00,VWS V14.01,2013-10-08 18:19:00,
2013-10-08 13:24:00,72.1,49.6,30.11,SSE,157,0.0,11.0,45,0.00,,CLR,0.00,VWS V14.01,2013-10-08 18:24:00,
2013-10-08 13:29:00,72.3,50.4,30.10,SW,215,0.0,11.0,46,0.00,,CLR,0.00,VWS V14.01,2013-10-08 18:29:00,
2013-10-08 13:34:00,72.1,50.2,30.10,East,86,6.0,12.0,46,0.00,,CLR,0.00,VWS V14.01,2013-10-08 18:34:00,
2013-10-08 13:39:00,72.1,49.0,30.10,ENE,78,3.0,12.0,44,0.00,,CLR,0.00,VWS V14.01,2013-10-08 18:39:00,
2013-10-08 13:44:00,72.1,49.0,30.09,ESE,121,0.0,12.0,44,0.00,,CLR,0.00,VWS V14.01,2013-10-08 18:44:00,
2013-10-08 13:49:00,72.3,48.6,30.09,SSW,196,2.0,12.0,43,0.00,,CLR,0.00,VWS V14.01,2013-10-08 18:49:00,
2013-10-08 13:54:00,72.8,50.8,30.09,ESE,113,2.0,12.0,46,0.00,,CLR,0.00,VWS V14.01,2013-10-08 18:54:00,
2013-10-08 13:59:00,72.8,49.0,30.08,East,80,2.0,12.0,43,0.00,,CLR,0.00,VWS V14.01,2013-10-08 18:59:00,
2013-10-08 14:00:00,72.7,48.9,30.08,SE,128,1.0,12.0,43,0.00,,OVC041CB,0.00,VWS V14.01,2013-10-08 19:00:00,
2013-10-08 14:05:00,73.0,49.8,30.08,SSE,164,2.0,7.0,44,0.00,,FEW250,0.00,VWS V14.01,2013-10-08 19:05:00,
2013-10-08 14:10:00,72.8,49.6,30.08,SSE,165,2.0,10.0,44,0.00,,FEW250,0.00,VWS V14.01,2013-10-08 19:10:00,
2013-10-08 14:15:00,72.8,49.0,30.08,SE,127,5.0,10.0,43,0.00,,FEW250,0.00,VWS V14.01,2013-10-08 19:15:00,
2013-10-08 14:20:00,72.8,49.6,30.08,SSE,162,2.0,10.0,44,0.00,,FEW250,0.00,VWS V14.01,2013-10-08 19:20:00,
2013-10-08 14:25:00,73.0,49.8,30.08,SE,143,3.0,10.0,44,0.00,,FEW250,0.00,VWS V14.01,2013-10-08 19:25:00,
2013-10-08 14:30:00,73.7,49.8,30.07,SSE,158,1.0,10.0,43,0.00,,FEW250,0.00,VWS V14.01,2013-10-08 19:30:00,
2013-10-08 14:35:00,73.7,49.2,30.07,East,93,0.0,11.0,42,0.00,,FEW250,0.00,VWS V14.01,2013-10-08 19:35:00,
2013-10-08 14:40:00,73.7,49.2,30.07,ENE,75,2.0,11.0,42,0.00,,FEW250,0.00,VWS V14.01,2013-10-08 19:40:00,
2013-10-08 14:45:00,73.5,49.7,30.07,SSE,150,5.0,11.0,43,0.00,,FEW250,0.00,VWS V14.01,2013-10-08 19:45:00,
2013-10-08 14:50:00,74.0,48.8,30.07,SSW,195,5.0,11.0,41,0.00,,FEW250,0.00,VWS V14.01,2013-10-08 19:50:00,
2013-10-08 14:55:00,73.9,50.0,30.07,SE,128,0.0,11.0,43,0.00,,FEW250,0.00,VWS V14.01,2013-10-08 19:55:00,
2013-10-08 15:00:00,73.3,48.8,30.06,SE,133,3.0,5.0,42,0.00,,CLR,0.00,VWS V14.01,2013-10-08 20:00:00,
2013-10-08 15:05:00,73.3,49.5,30.06,SE,136,3.0,10.0,43,0.00,,CLR,0.00,VWS V14.01,2013-10-08 20:05:00,
2013-10-08 15:10:00,73.0,48.6,30.06,ESE,102,2.0,10.0,42,0.00,,CLR,0.00,VWS V14.01,2013-10-08 20:10:00,
2013-10-08 15:15:00,73.2,49.4,30.06,SE,141,2.0,10.0,43,0.00,,CLR,0.00,VWS V14.01,2013-10-08 20:15:00,
2013-10-08 15:20:00,73.2,48.1,30.06,South,185,5.0,10.0,41,0.00,,CLR,0.00,VWS V14.01,2013-10-08 20:20:00,
2013-10-08 15:25:00,73.5,47.7,30.06,SSE,148,0.0,10.0,40,0.00,,CLR,0.00,VWS V14.01,2013-10-08 20:25:00,
2013-10-08 15:30:00,73.7,47.9,30.05,South,174,3.0,10.0,40,0.00,,CLR,0.00,VWS V14.01,2013-10-08 20:30:00,
2013-10-08 15:35:00,73.7,48.6,30.05,East,92,0.0,10.0,41,0.00,,CLR,0.00,VWS V14.01,2013-10-08 20:35:00,
2013-10-08 15:40:00,73.9,46.7,30.05,East,83,3.0,10.0,38,0.00,,CLR,0.00,VWS V14.01,2013-10-08 20:40:00,
2013-10-08 15:45:00,74.0,49.5,30.05,South,179,1.0,10.0,42,0.00,,CLR,0.00,VWS V14.01,2013-10-08 20:45:00,
2013-10-08 15:50:00,74.2,47.7,30.05,South,178,2.0,10.0,39,0.00,,CLR,0.00,VWS V14.01,2013-10-08 20:50:00,
2013-10-08 15:55:00,74.0,46.8,30.05,ESE,116,0.0,10.0,38,0.00,,CLR,0.00,VWS V14.01,2013-10-08 20:55:00,
2013-10-08 16:01:00,73.9,47.4,30.05,SE,140,8.0,8.0,39,0.00,,CLR,0.00,VWS V14.01,2013-10-08 21:01:00,
2013-10-08 16:06:00,73.5,47.0,30.05,NNE,27,5.0,10.0,39,0.00,,CLR,0.00,VWS V14.01,2013-10-08 21:06:00,
2013-10-08 16:11:00,73.5,46.4,30.05,East,90,3.0,10.0,38,0.00,,CLR,0.00,VWS V14.01,2013-10-08 21:11:00,
2013-10-08 16:16:00,73.7,46.5,30.05,SE,126,5.0,10.0,38,0.00,,CLR,0.00,VWS V14.01,2013-10-08 21:16:00,
2013-10-08 16:21:00,73.5,44.9,30.05,SSE,164,0.0,10.0,36,0.00,,CLR,0.00,VWS V14.01,2013-10-08 21:21:00,
2013-10-08 16:26:00,73.9,46.7,30.05,ESE,103,2.0,10.0,38,0.00,,CLR,0.00,VWS V14.01,2013-10-08 21:26:00,
2013-10-08 16:31:00,73.9,44.5,30.05,SE,134,2.0,10.0,35,0.00,,CLR,0.00,VWS V14.01,2013-10-08 21:31:00,
2013-10-08 16:36:00,73.9,44.5,30.05,East,88,2.0,10.0,35,0.00,,CLR,0.00,VWS V14.01,2013-10-08 21:36:00,
2013-10-08 16:41:00,73.5,44.2,30.05,East,96,2.0,10.0,35,0.00,,CLR,0.00,VWS V14.01,2013-10-08 21:41:00,
2013-10-08 16:46:00,73.7,45.8,30.04,South,175,2.0,10.0,37,0.00,,CLR,0.00,VWS V14.01,2013-10-08 21:46:00,
2013-10-08 16:51:00,73.9,45.3,30.04,ENE,73,0.0,10.0,36,0.00,,CLR,0.00,VWS V14.01,2013-10-08 21:51:00,
2013-10-08 16:56:00,73.7,46.5,30.04,SSE,165,0.0,10.0,38,0.00,,CLR,0.00,VWS V14.01,2013-10-08 21:56:00,
2013-10-08 17:00:00,73.5,45.7,30.04,East,83,2.0,10.0,37,0.00,,OVC041CB,0.00,VWS V14.01,2013-10-08 22:00:00,
2013-10-08 17:01:00,73.5,44.2,30.04,South,175,0.0,2.0,35,0.00,,FEW250,0.00,VWS V14.01,2013-10-08 22:01:00,
2013-10-08 17:06:00,73.3,46.2,30.04,South,189,0.0,6.0,38,0.00,,FEW250,0.00,VWS V14.01,2013-10-08 22:06:00,
2013-10-08 17:11:00,73.2,46.1,30.04,ESE,109,3.0,6.0,38,0.00,,FEW250,0.00,VWS V14.01,2013-10-08 22:11:00,
2013-10-08 17:16:00,72.8,49.0,30.03,ENE,68,1.0,7.0,43,0.00,,FEW250,0.00,VWS V14.01,2013-10-08 22:16:00,
2013-10-08 17:21:00,72.7,49.5,30.03,SE,133,7.0,7.0,44,0.00,,FEW250,0.00,VWS V14.01,2013-10-08 22:21:00,
2013-10-08 17:26:00,72.5,48.8,30.03,East,89,2.0,7.0,43,0.00,,FEW250,0.00,VWS V14.01,2013-10-08 22:26:00,
2013-10-08 17:31:00,72.3,47.3,30.03,East,82,2.0,8.0,41,0.00,,FEW250,0.00,VWS V14.01,2013-10-08 22:31:00,
2013-10-08 17:36:00,72.0,47.7,30.03,East,83,5.0,8.0,42,0.00,,FEW250,0.00,VWS V14.01,2013-10-08 22:36:00,
2013-10-08 17:41:00,71.8,48.7,30.03,East,99,7.0,10.0,44,0.00,,FEW250,0.00,VWS V14.01,2013-10-08 22:41:00,
2013-10-08 17:46:00,71.6,47.3,30.03,ENE,78,2.0,10.0,42,0.00,,FEW250,0.00,VWS V14.01,2013-10-08 22:46:00,
2013-10-08 17:52:00,71.6,48.6,30.03,East,96,0.0,10.0,44,0.00,,FEW250,0.00,VWS V14.01,2013-10-08 22:52:00,
2013-10-08 17:57:00,71.6,48.6,30.03,West,271,3.0,10.0,44,0.00,,FEW250,0.00,VWS V14.01,2013-10-08 22:57:00,
2013-10-08 18:02:00,71.5,49.1,30.03,ESE,119,2.0,6.0,45,0.00,,FEW250,0.00,VWS V14.01,2013-10-08 23:02:00,
2013-10-08 18:07:00,71.3,48.9,30.03,ESE,113,3.0,7.0,45,0.00,,FEW250,0.00,VWS V14.01,2013-10-08 23:07:00,
2013-10-08 18:12:00,71.1,49.3,30.03,ENE,69,3.0,7.0,46,0.00,,FEW250,0.00,VWS V14.01,2013-10-08 23:12:00,
2013-10-08 18:17:00,70.8,49.6,30.03,ENE,76,2.0,8.0,47,0.00,,FEW250,0.00,VWS V14.01,2013-10-08 23:17:00,
2013-10-08 18:22:00,70.6,50.5,30.03,East,93,2.0,8.0,49,0.00,,FEW250,0.00,VWS V14.01,2013-10-08 23:22:00,
2013-10-08 18:27:00,70.3,50.3,30.03,East,86,1.0,8.0,49,0.00,,FEW250,0.00,VWS V14.01,2013-10-08 23:27:00,
2013-10-08 18:32:00,69.9,50.4,30.03,East,96,5.0,8.0,50,0.00,,FEW250,0.00,VWS V14.01,2013-10-08 23:32:00,
2013-10-08 18:37:00,69.6,50.2,30.03,East,95,2.0,8.0,50,0.00,,FEW250,0.00,VWS V14.01,2013-10-08 23:37:00,
2013-10-08 18:42:00,68.9,50.6,30.03,ENE,65,1.0,8.0,52,0.00,,FEW250,0.00,VWS V14.01,2013-10-08 23:42:00,
2013-10-08 18:47:00,68.3,50.5,30.03,ENE,76,2.0,8.0,53,0.00,,FEW250,0.00,VWS V14.01,2013-10-08 23:47:00,
2013-10-08 18:52:00,67.8,51.1,30.03,East,79,0.0,8.0,55,0.00,,FEW250,0.00,VWS V14.01,2013-10-08 23:52:00,
2013-10-08 18:57:00,67.6,50.4,30.03,SE,131,0.0,8.0,54,0.00,,FEW250,0.00,VWS V14.01,2013-10-08 23:57:00,
2013-10-08 19:02:00,67.3,51.1,30.03,SE,131,1.0,2.0,56,0.00,,SCT250,0.00,VWS V14.01,2013-10-09 00:02:00,
2013-10-08 19:07:00,66.8,51.1,30.03,SE,131,0.0,2.0,57,0.00,,SCT250,0.00,VWS V14.01,2013-10-09 00:07:00,
2013-10-08 19:12:00,66.3,50.2,30.03,East,88,0.0,3.0,56,0.00,,SCT250,0.00,VWS V14.01,2013-10-09 00:12:00,
2013-10-08 19:17:00,66.0,50.8,30.03,ENE,73,0.0,3.0,58,0.00,,SCT250,0.00,VWS V14.01,2013-10-09 00:17:00,
2013-10-08 19:23:00,66.0,50.8,30.03,ENE,73,0.0,3.0,58,0.00,,SCT250,0.00,VWS V14.01,2013-10-09 00:23:00,
2013-10-08 19:28:00,65.6,50.4,30.03,ENE,69,0.0,3.0,58,0.00,,SCT250,0.00,VWS V14.01,2013-10-09 00:28:00,
2013-10-08 19:33:00,65.5,50.8,30.04,ENE,73,0.0,3.0,59,0.00,,SCT250,0.00,VWS V14.01,2013-10-09 00:33:00,
2013-10-08 19:38:00,65.5,50.3,30.04,East,79,0.0,3.0,58,0.00,,SCT250,0.00,VWS V14.01,2013-10-09 00:38:00,
2013-10-08 19:43:00,65.3,50.6,30.04,ENE,78,0.0,5.0,59,0.00,,SCT250,0.00,VWS V14.01,2013-10-09 00:43:00,
2013-10-08 19:48:00,65.3,50.6,30.04,SE,126,1.0,7.0,59,0.00,,SCT250,0.00,VWS V14.01,2013-10-09 00:48:00,
2013-10-08 19:53:00,65.2,50.5,30.04,East,79,0.0,7.0,59,0.00,,SCT250,0.00,VWS V14.01,2013-10-09 00:53:00,
2013-10-08 19:58:00,65.0,50.3,30.04,ESE,103,0.0,7.0,59,0.00,,SCT250,0.00,VWS V14.01,2013-10-09 00:58:00,
2013-10-08 20:03:00,64.8,49.7,30.04,East,89,0.0,3.0,58,0.00,,SCT250,0.00,VWS V14.01,2013-10-09 01:03:00,
2013-10-08 20:08:00,65.0,49.4,30.04,SE,137,2.0,5.0,57,0.00,,SCT250,0.00,VWS V14.01,2013-10-09 01:08:00,
2013-10-08 20:13:00,65.2,49.1,30.04,East,89,2.0,5.0,56,0.00,,SCT250,0.00,VWS V14.01,2013-10-09 01:13:00,
2013-10-08 20:18:00,65.2,48.6,30.04,ESE,110,0.0,5.0,55,0.00,,SCT250,0.00,VWS V14.01,2013-10-09 01:18:00,
2013-10-08 20:23:00,65.3,48.7,30.04,ESE,123,0.0,6.0,55,0.00,,SCT250,0.00,VWS V14.01,2013-10-09 01:23:00,
2013-10-08 20:28:00,65.3,48.2,30.04,ESE,102,0.0,6.0,54,0.00,,SCT250,0.00,VWS V14.01,2013-10-09 01:28:00,
2013-10-08 20:33:00,65.5,48.4,30.04,SE,138,5.0,7.0,54,0.00,,SCT250,0.00,VWS V14.01,2013-10-09 01:33:00,
2013-10-08 20:38:00,65.3,48.2,30.04,SE,143,3.0,7.0,54,0.00,,SCT250,0.00,VWS V14.01,2013-10-09 01:38:00,
2013-10-08 20:43:00,65.2,48.6,30.04,East,100,1.0,7.0,55,0.00,,SCT250,0.00,VWS V14.01,2013-10-09 01:43:00,
2013-10-08 20:48:00,65.0,48.0,30.04,East,80,3.0,7.0,54,0.00,,SCT250,0.00,VWS V14.01,2013-10-09 01:48:00,
2013-10-08 20:54:00,64.7,48.7,30.04,East,82,2.0,7.0,56,0.00,,SCT250,0.00,VWS V14.01,2013-10-09 01:54:00,
2013-10-08 20:59:00,64.2,47.2,30.04,East,86,2.0,7.0,54,0.00,,SCT250,0.00,VWS V14.01,2013-10-09 01:59:00,
2013-10-08 21:04:00,64.0,47.5,30.04,ESE,119,0.0,5.0,55,0.00,,SCT250,0.00,VWS V14.01,2013-10-09 02:04:00,
2013-10-08 21:09:00,63.7,47.7,30.04,ENE,73,1.0,7.0,56,0.00,,SCT250,0.00,VWS V14.01,2013-10-09 02:09:00,
2013-10-08 21:14:00,63.5,47.5,30.04,East,93,0.0,7.0,56,0.00,,SCT250,0.00,VWS V14.01,2013-10-09 02:14:00,
2013-10-08 21:19:00,63.5,47.1,30.04,ESE,117,5.0,7.0,55,0.00,,SCT250,0.00,VWS V14.01,2013-10-09 02:19:00,
2013-10-08 21:24:00,63.5,47.5,30.04,ESE,106,2.0,7.0,56,0.00,,SCT250,0.00,VWS V14.01,2013-10-09 02:24:00,
2013-10-08 21:29:00,63.5,47.1,30.04,East,93,1.0,7.0,55,0.00,,SCT250,0.00,VWS V14.01,2013-10-09 02:29:00,
2013-10-08 21:34:00,63.4,46.5,30.04,ESE,104,1.0,7.0,54,0.00,,SCT250,0.00,VWS V14.01,2013-10-09 02:34:00,
2013-10-08 21:39:00,63.2,46.8,30.04,East,93,1.0,7.0,55,0.00,,SCT250,0.00,VWS V14.01,2013-10-09 02:39:00,
2013-10-08 21:45:00,63.1,47.2,30.04,ESE,103,0.0,7.0,56,0.00,,SCT250,0.00,VWS V14.01,2013-10-09 02:45:00,
2013-10-08 21:50:00,63.1,46.7,30.04,ESE,119,2.0,7.0,55,0.00,,SCT250,0.00,VWS V14.01,2013-10-09 02:50:00,
2013-10-08 21:55:00,62.9,46.5,30.04,ESE,117,0.0,7.0,55,0.00,,SCT250,0.00,VWS V14.01,2013-10-09 02:55:00,
2013-10-08 22:00:00,62.9,46.5,30.04,ESE,104,2.0,7.0,55,0.00,,SCT250,0.00,VWS V14.01,2013-10-09 03:00:00,
2013-10-08 22:05:00,62.6,46.7,30.04,ENE,66,3.0,5.0,56,0.00,,SCT250,0.00,VWS V14.01,2013-10-09 03:05:00,
2013-10-08 22:10:00,62.4,46.5,30.04,ENE,78,2.0,7.0,56,0.00,,SCT250,0.00,VWS V14.01,2013-10-09 03:10:00,
2013-10-08 22:15:00,62.3,46.4,30.04,East,85,2.0,7.0,56,0.00,,SCT250,0.00,VWS V14.01,2013-10-09 03:15:00,
2013-10-08 22:20:00,62.0,46.6,30.04,East,89,2.0,8.0,57,0.00,,SCT250,0.00,VWS V14.01,2013-10-09 03:20:00,
2013-10-08 22:25:00,62.0,46.6,30.04,East,95,2.0,8.0,57,0.00,,SCT250,0.00,VWS V14.01,2013-10-09 03:25:00,
2013-10-08 22:30:00,62.0,46.6,30.04,SE,131,2.0,8.0,57,0.00,,SCT250,0.00,VWS V14.01,2013-10-09 03:30:00,
2013-10-08 22:35:00,62.1,46.7,30.04,East,82,1.0,8.0,57,0.00,,SCT250,0.00,VWS V14.01,2013-10-09 03:35:00,
2013-10-08 22:40:00,62.1,47.2,30.04,East,92,3.0,8.0,58,0.00,,SCT250,0.00,VWS V14.01,2013-10-09 03:40:00,
2013-10-08 22:45:00,62.0,46.6,30.04,ENE,75,5.0,8.0,57,0.00,,SCT250,0.00,VWS V14.01,2013-10-09 03:45:00,
2013-10-08 22:50:00,62.0,46.1,30.04,South,188,2.0,8.0,56,0.00,,SCT250,0.00,VWS V14.01,2013-10-09 03:50:00,
2013-10-08 22:55:00,61.8,46.9,30.04,ENE,76,2.0,8.0,58,0.00,,SCT250,0.00,VWS V14.01,2013-10-09 03:55:00,
2013-10-08 23:00:00,61.6,47.2,30.04,SE,124,3.0,3.0,59,0.00,,SCT250,0.00,VWS V14.01,2013-10-09 04:00:00,
2013-10-08 23:01:00,61.6,46.2,30.04,ESE,104,2.0,7.0,57,0.00,,SCT250,0.00,VWS V14.01,2013-10-09 04:01:00,
2013-10-08 23:02:00,61.6,46.7,30.04,East,92,1.0,7.0,58,0.00,,SCT250,0.00,VWS V14.01,2013-10-09 04:02:00,
2013-10-08 23:03:00,61.5,46.6,30.04,East,97,5.0,7.0,58,0.00,,SCT250,0.00,VWS V14.01,2013-10-09 04:03:00,
2013-10-08 23:04:00,61.5,47.1,30.04,East,83,3.0,7.0,59,0.00,,SCT250,0.00,VWS V14.01,2013-10-09 04:04:00,
2013-10-08 23:07:00,61.3,46.9,30.04,ENE,76,5.0,7.0,59,0.00,,SCT250,0.00,VWS V14.01,2013-10-09 04:07:00,
2013-10-08 23:12:00,61.2,46.8,30.04,ESE,103,3.0,7.0,59,0.00,,SCT250,0.00,VWS V14.01,2013-10-09 04:12:00,
2013-10-08 23:17:00,61.0,47.0,30.04,SE,130,3.0,7.0,60,0.00,,SCT250,0.00,VWS V14.01,2013-10-09 04:17:00,
2013-10-08 23:22:00,60.9,46.9,30.04,East,93,3.0,7.0,60,0.00,,SCT250,0.00,VWS V14.01,2013-10-09 04:22:00,
2013-10-08 23:28:00,60.9,46.9,30.04,ESE,121,2.0,7.0,60,0.00,,SCT250,0.00,VWS V14.01,2013-10-09 04:28:00,
2013-10-08 23:33:00,60.9,46.9,30.04,East,92,5.0,7.0,60,0.00,,SCT250,0.00,VWS V14.01,2013-10-09 04:33:00,
2013-10-08 23:38:00,60.7,46.3,30.04,ESE,102,5.0,7.0,59,0.00,,SCT250,0.00,VWS V14.01,2013-10-09 04:38:00,
2013-10-08 23:43:00,60.7,46.8,30.04,East,80,3.0,7.0,60,0.00,,SCT250,0.00,VWS V14.01,2013-10-09 04:43:00,
2013-10-08 23:48:00,60.7,47.2,30.04,SE,127,1.0,7.0,61,0.00,,SCT250,0.00,VWS V14.01,2013-10-09 04:48:00,
2013-10-08 23:53:00,60.5,47.0,30.04,East,96,6.0,7.0,61,0.00,,SCT250,0.00,VWS V14.01,2013-10-09 04:53:00,
2013-10-08 23:58:00,60.4,46.9,30.04,SE,140,2.0,7.0,61,0.00,,SCT250,0.00,VWS V14.01,2013-10-09 04:58:00,